Погода в Бунькове

Россия / Ивановская область     57°03′55″N   40°42′22″E
темп.,
°C
ветер,
м/с
пор.,
м/с
влажн.,
%
обл.,
%
осадки,
мм/ч
давл.,
гПа
погр.,
м
24 июля, сб
сб2400:00+11сз388922 0.0 1007158
03:00+10сз2794100 0.0 1008149
06:00+11с2582100 0.0 1010238
09:00+15ссз246289 0.0 1012840
12:00+19с353989 0.1 10122301
15:00+20сз353179 0.1 10132342
18:00+19сз463494 0.0 10141088
21:00+13сз24510 0.0 101645
25 июля, вс
вс2500:00+10сз116210 0.0 101810
03:00+12юз115798 0.0 101913
06:00+14юз235881 0.0 1020109
09:00+19зюз233990 0.0 1020747
12:00+22зюз342988 0.0 10202778
15:00+23зюз442972 0.0 10202811
18:00+20юз364557 0.0 1021325
21:00+16зюз2358100 0.0 102256
26 июля, пн
пн2600:00+16сз1156100 0.0 102211
03:00+16зюз1157100 0.0 102312
06:00+16юз236248 0.0 102381
09:00+22з234371 0.0 1023761
12:00+25з4531100 0.0 10232975
15:00+22з3745100 0.0 1022627
18:00+24зюз244179 0.0 10221316
21:00+17з35695 0.0 102274
27 июля, вт
вт2700:00+15з23804 0.0 102355
03:00+14з23825 0.0 102265
06:00+17з26767 0.0 1023166
09:00+23з34515 0.0 1022604
12:00+27зсз343496 0.0 10212850
15:00+23з234895 0.0 1020193
18:00+26зюз13405 0.0 1019938
21:00+20зсз115844 0.0 101911
28 июля, ср
ср2800:00+17з22675 0.0 102012
03:00+15з22821 0.0 101935
06:00+17зюз25779 0.0 1019138
09:00+24зюз35495 0.0 1017607
12:00+28зюз4538100 0.0 10162456
15:00+26зюз474890 0.0 1014719
18:00+26з674986 0.1 10131177
21:00+19ю2270100 0.2 101214